Time,TemperatureF,DewpointF,PressureIn,WindDirection,WindDirectionDegrees,WindSpeedMPH,WindSpeedGustMPH,Humidity,HourlyPrecipIn,Conditions,Clouds,dailyrainin,SoftwareType,DateUTC
2013-07-22 01:00:00,77.0,-99.9,30.00,WSW,240,6.0,-999.0,-999,-99.99,,,-99.99,,2013-07-22 01:00:00,
2013-07-22 01:32:00,77.0,-99.9,30.00,WSW,240,6.0,-999.0,-999,-99.99,,,-99.99,,2013-07-22 01:32:00,
2013-07-22 01:42:00,77.0,-99.9,30.00,WSW,240,6.0,-999.0,-999,-99.99,,,-99.99,,2013-07-22 01:42:00,
2013-07-22 01:52:00,77.0,-99.9,30.00,WSW,240,6.0,-999.0,-999,-99.99,,,-99.99,,2013-07-22 01:52:00,
2013-07-22 02:00:00,77.0,-99.9,30.01,SW,230,10.0,-999.0,-999,-99.99,,,-99.99,,2013-07-22 02:00:00,
2013-07-22 02:32:00,77.0,-99.9,30.01,SW,230,10.0,-999.0,-999,-99.99,,,-99.99,,2013-07-22 02:32:00,
2013-07-22 02:43:00,77.0,-99.9,30.01,SW,230,10.0,-999.0,-999,-99.99,,,-99.99,,2013-07-22 02:43:00,
2013-07-22 02:52:00,77.0,-99.9,30.01,SW,230,10.0,-999.0,-999,-99.99,,,-99.99,,2013-07-22 02:52:00,
2013-07-22 03:00:00,77.0,-99.9,29.99,WSW,240,12.0,-999.0,-999,-99.99,,,-99.99,,2013-07-22 03:00:00,
2013-07-22 03:33:00,77.0,-99.9,29.99,WSW,240,12.0,-999.0,-999,-99.99,,,-99.99,,2013-07-22 03:33:00,
2013-07-22 03:43:00,77.0,-99.9,29.99,WSW,240,12.0,-999.0,-999,-99.99,,,-99.99,,2013-07-22 03:43:00,
2013-07-22 03:53:00,77.0,-99.9,29.99,WSW,240,12.0,-999.0,-999,-99.99,,,-99.99,,2013-07-22 03:53:00,
2013-07-22 04:00:00,78.0,-99.9,29.99,West,260,15.0,-999.0,-999,-99.99,,,-99.99,,2013-07-22 04:00:00,
2013-07-22 04:33:00,78.0,-99.9,29.99,West,260,15.0,-999.0,-999,-99.99,,,-99.99,,2013-07-22 04:33:00,
2013-07-22 04:43:00,78.0,-99.9,29.99,West,260,15.0,-999.0,-999,-99.99,,,-99.99,,2013-07-22 04:43:00,
2013-07-22 05:00:00,76.0,-99.9,29.99,West,280,7.0,-999.0,-999,-99.99,,,-99.99,,2013-07-22 05:00:00,
2013-07-22 05:32:00,76.0,-99.9,29.99,West,280,7.0,-999.0,-999,-99.99,,,-99.99,,2013-07-22 05:32:00,
2013-07-22 05:43:00,76.0,-99.9,29.99,West,280,7.0,-999.0,-999,-99.99,,,-99.99,,2013-07-22 05:43:00,
2013-07-22 05:52:00,76.0,-99.9,29.99,West,280,7.0,-999.0,-999,-99.99,,,-99.99,,2013-07-22 05:52:00,
2013-07-22 07:00:00,73.0,-99.9,29.98,East,80,2.0,-999.0,-999,-99.99,,,-99.99,,2013-07-22 07:00:00,
2013-07-22 07:33:00,73.0,-99.9,29.98,East,80,2.0,-999.0,-999,-99.99,,,-99.99,,2013-07-22 07:33:00,
2013-07-22 07:43:00,73.0,-99.9,29.98,East,80,2.0,-999.0,-999,-99.99,,,-99.99,,2013-07-22 07:43:00,
2013-07-22 07:53:00,73.0,-99.9,29.98,East,80,2.0,-999.0,-999,-99.99,,,-99.99,,2013-07-22 07:53:00,
2013-07-22 08:00:00,72.0,-99.9,29.99,North,360,5.0,-999.0,-999,-99.99,,,-99.99,,2013-07-22 08:00:00,
2013-07-22 08:32:00,72.0,-99.9,29.99,North,360,5.0,-999.0,-999,-99.99,,,-99.99,,2013-07-22 08:32:00,
2013-07-22 08:43:00,72.0,-99.9,29.99,North,360,5.0,-999.0,-999,-99.99,,,-99.99,,2013-07-22 08:43:00,
2013-07-22 08:52:00,72.0,-99.9,29.99,North,360,5.0,-999.0,-999,-99.99,,,-99.99,,2013-07-22 08:52:00,
2013-07-22 09:00:00,72.0,-99.9,30.00,NNW,340,3.0,-999.0,-999,-99.99,,,-99.99,,2013-07-22 09:00:00,
2013-07-22 09:33:00,72.0,-99.9,30.00,NNW,340,3.0,-999.0,-999,-99.99,,,-99.99,,2013-07-22 09:33:00,
2013-07-22 09:42:00,72.0,-99.9,30.00,NNW,340,3.0,-999.0,-999,-99.99,,,-99.99,,2013-07-22 09:42:00,
2013-07-22 09:52:00,72.0,-99.9,30.00,NNW,340,3.0,-999.0,-999,-99.99,,,-99.99,,2013-07-22 09:52:00,
2013-07-22 12:00:00,72.0,-99.9,30.02,ENE,70,10.0,-999.0,-999,-99.99,,,-99.99,,2013-07-22 12:00:00,
2013-07-22 12:33:00,72.0,-99.9,30.02,ENE,70,10.0,-999.0,-999,-99.99,,,-99.99,,2013-07-22 12:33:00,
2013-07-22 12:43:00,72.0,-99.9,30.02,ENE,70,10.0,-999.0,-999,-99.99,,,-99.99,,2013-07-22 12:43:00,
2013-07-22 12:53:00,72.0,-99.9,30.02,ENE,70,10.0,-999.0,-999,-99.99,,,-99.99,,2013-07-22 12:53:00,
2013-07-22 13:00:00,71.0,-99.9,30.03,East,80,8.0,-999.0,-999,-99.99,,,-99.99,,2013-07-22 13:00:00,
2013-07-22 13:43:00,71.0,-99.9,30.03,East,80,8.0,-999.0,-999,-99.99,,,-99.99,,2013-07-22 13:43:00,
2013-07-22 13:53:00,71.0,-99.9,30.03,East,80,8.0,-999.0,-999,-99.99,,,-99.99,,2013-07-22 13:53:00,
2013-07-22 14:00:00,71.0,-99.9,30.04,ENE,70,6.0,-999.0,-999,-99.99,,,-99.99,,2013-07-22 14:00:00,
2013-07-22 14:43:00,71.0,-99.9,30.04,ENE,70,6.0,-999.0,-999,-99.99,,,-99.99,,2013-07-22 14:43:00,
2013-07-22 14:53:00,71.0,-99.9,30.04,ENE,70,6.0,-999.0,-999,-99.99,,,-99.99,,2013-07-22 14:53:00,
2013-07-22 15:00:00,70.0,-99.9,30.04,East,90,6.0,-999.0,-999,-99.99,,,-99.99,,2013-07-22 15:00:00,
2013-07-22 15:43:00,70.0,-99.9,30.04,East,90,6.0,-999.0,-999,-99.99,,,-99.99,,2013-07-22 15:43:00,
2013-07-22 15:52:00,70.0,-99.9,30.04,East,90,6.0,-999.0,-999,-99.99,,,-99.99,,2013-07-22 15:52:00,
2013-07-22 16:00:00,71.0,-99.9,30.03,ESE,110,7.0,-999.0,-999,-99.99,,,-99.99,,2013-07-22 16:00:00,
2013-07-22 16:43:00,71.0,-99.9,30.03,ESE,110,7.0,-999.0,-999,-99.99,,,-99.99,,2013-07-22 16:43:00,
2013-07-22 16:52:00,71.0,-99.9,30.03,ESE,110,7.0,-999.0,-999,-99.99,,,-99.99,,2013-07-22 16:52:00,
2013-07-22 17:33:00,70.0,-99.9,30.04,NE,50,5.0,-999.0,-999,-99.99,,,-99.99,,2013-07-22 17:33:00,
2013-07-22 17:42:00,71.0,68.0,30.04,NE,40,5.0,-999.0,89,-99.99,,,-99.99,,2013-07-22 17:42:00,
2013-07-22 17:52:00,71.0,68.0,30.04,NE,40,5.0,-999.0,89,-99.99,,,-99.99,,2013-07-22 17:52:00,
2013-07-22 18:00:00,70.0,-99.9,30.04,ENE,70,7.0,-999.0,-999,-99.99,,,-99.99,,2013-07-22 18:00:00,
2013-07-22 18:56:00,70.0,-99.9,30.04,ENE,70,7.0,-999.0,-999,-99.99,,,-99.99,,2013-07-22 18:56:00,
2013-07-22 19:00:00,70.0,-99.9,30.05,ENE,60,5.0,-999.0,-999,-99.99,,,-99.99,,2013-07-22 19:00:00,
2013-07-22 19:37:00,70.0,-99.9,30.05,ENE,60,5.0,-999.0,-999,-99.99,,,-99.99,,2013-07-22 19:37:00,
2013-07-22 19:48:00,70.0,-99.9,30.05,ENE,60,5.0,-999.0,-999,-99.99,,,-99.99,,2013-07-22 19:48:00,
2013-07-22 20:00:00,70.0,-99.9,30.04,ENE,60,2.0,-999.0,-999,-99.99,,,-99.99,,2013-07-22 20:00:00,
2013-07-22 20:43:00,70.0,-99.9,30.04,ENE,60,2.0,-999.0,-999,-99.99,,,-99.99,,2013-07-22 20:43:00,
2013-07-22 20:52:00,70.0,-99.9,30.04,ENE,60,2.0,-999.0,-999,-99.99,,,-99.99,,2013-07-22 20:52:00,
2013-07-22 21:00:00,71.0,-99.9,30.03,NNE,20,5.0,-999.0,-999,-99.99,,,-99.99,,2013-07-22 21:00:00,
2013-07-22 21:33:00,71.0,-99.9,30.03,NNE,20,5.0,-999.0,-999,-99.99,,,-99.99,,2013-07-22 21:33:00,
2013-07-22 21:43:00,71.0,-99.9,30.03,NNE,20,5.0,-999.0,-999,-99.99,,,-99.99,,2013-07-22 21:43:00,
2013-07-22 21:53:00,71.0,-99.9,30.03,NNE,20,5.0,-999.0,-999,-99.99,,,-99.99,,2013-07-22 21:53:00,
2013-07-22 22:00:00,71.0,-99.9,30.04,NE,40,3.0,-999.0,-999,-99.99,,,-99.99,,2013-07-22 22:00:00,
2013-07-22 22:32:00,71.0,-99.9,30.04,NE,40,3.0,-999.0,-999,-99.99,,,-99.99,,2013-07-22 22:32:00,
2013-07-22 22:43:00,71.0,-99.9,30.04,NE,40,3.0,-999.0,-999,-99.99,,,-99.99,,2013-07-22 22:43:00,
2013-07-22 22:52:00,71.0,-99.9,30.04,NE,40,3.0,-999.0,-999,-99.99,,,-99.99,,2013-07-22 22:52:00,
2013-07-22 23:00:00,71.0,-99.9,30.04,East,100,3.0,-999.0,-999,-99.99,,,-99.99,,2013-07-22 23:00:00,
2013-07-22 23:32:00,71.0,-99.9,30.04,East,100,3.0,-999.0,-999,-99.99,,,-99.99,,2013-07-22 23:32:00,
2013-07-22 23:43:00,71.0,-99.9,30.04,East,100,3.0,-999.0,-999,-99.99,,,-99.99,,2013-07-22 23:43:00,
2013-07-22 23:52:00,71.0,-99.9,30.04,East,100,3.0,-999.0,-999,-99.99,,,-99.99,,2013-07-22 23:52:00,